Regional Weather Roundup
Issued by NWS

Home | Current Version | Previous Version | Graphics & Text | Print | Product List | Glossary On
Versions: 1 2 3 4 5 6 7 8 9 10 11 12 13 14 15 16 17 18 19 20 21 22 23 24 25 26 27 28 29 30 31 32 33 34 35 36 37 38 39 40 41 42 43 44 45 46 47 48 49 50
000
ASUS43 KBIS 260420
RWRND

NORTH DAKOTA REGIONAL WEATHER ROUNDUP
NATIONAL WEATHER SERVICE BISMARCK ND
1000 PM CST TUE NOV 25 2014

NOTE: "FAIR" INDICATES FEW OR NO CLOUDS BELOW 12,000 FEET WITH NO
SIGNIFICANT WEATHER AND/OR OBSTRUCTIONS TO VISIBILITY.


NDZ001>003-009>011-017-260500-
NORTHWEST NORTH DAKOTA

CITY           SKY/WX    TMP DP  RH WIND       PRES   REMARKS
WILLISTON      CLOUDY    18  13  80 N10       30.14R WCI   6
MINOT          CLOUDY     9   4  80 N14       30.11R HAZE    WCI  -7
MINOT AFB      FLURRIES   9   5  86 N13       30.13R WCI  -7
$$

NDZ018>021-031>035-040>046-260500-
SOUTHWEST NORTH DAKOTA

CITY           SKY/WX    TMP DP  RH WIND       PRES   REMARKS
BISMARCK       CLOUDY    20  15  81 NE21G28   29.98R WCI   4
DICKINSON      CLOUDY    21  17  84 N17       30.01R WCI   7
GARRISON         N/A     15  12  88 NE15G24   30.05R WCI   0
HETTINGER ARPT CLOUDY    25  21  85 N28G38    29.97R WCI   9
$$

NDZ004>008-012>016-024-026-027-054-260500-
NORTHEAST NORTH DAKOTA

CITY           SKY/WX    TMP DP  RH WIND       PRES   REMARKS
GRAND FORKS    FLURRIES  14  10  84 N20       30.09R WCI  -3
GRND FRKS AFB  LGT SNOW  12   9  85 N16G23    30.11R FOG     WCI  -4
DEVILS LAKE    MOCLDY    10   0  61 NE14      30.07R WCI  -5
$$

NDZ022-023-025-028>030-036>039-047>053-260500-
SOUTHEAST NORTH DAKOTA

CITY           SKY/WX    TMP DP  RH WIND       PRES   REMARKS
FARGO          LGT SNOW  24  19  81 NE9       30.00R WCI  14
JAMESTOWN      LGT SNOW  17  14  88 NE24G32   29.97R VSB 1   WCI  -1
$$



USA.gov is the U.S. government's official web portal to all federal, state and local government web resources and services.